Location: Arcizac
(43.0933°N, 0.0112°E)
Time: 08:14:51
(UTC+00:00)

Cosmos 407 Rocket - Pass Details

Date: 14 December 2019
Orbit: 743 x 787 km, 74.0° (Epoch: 28 January)

Event Time Altitude Azimuth Distance (km) Brightness Sun altitude
Rises 16:55:03 0° 176° (S) 3,190 7.0 -5.6°
Reaches altitude 10° 16:57:31 10° 169° (S) 2,277 6.2 -6.0°
Maximum altitude 17:02:16 38° 102° (ESE) 1,147 4.1 -6.7°
Drops below altitude 10° 17:07:07 10° 35° (NE) 2,320 5.5 -7.5°
Enters shadow 17:08:41 - 30° (NNE) 2,894 6.0 -7.8°
